Regional Weather Roundup
Issued by NWS

Home | Current Version | Previous Version | Graphics & Text | Print | Product List | Glossary On
Versions: 1 2 3 4 5 6 7 8 9 10 11 12 13 14 15 16 17 18 19 20 21 22 23 24 25 26 27 28
000
ASUS45 KCYS 220310
RWRWY

WYOMING REGIONAL WEATHER ROUNDUP
NATIONAL WEATHER SERVICE CHEYENNE WY
900 PM MDT THU SEP 21 2017

NOTE:  "FAIR" INDICATES FEW OR NO CLOUDS BELOW 12,000 FEET
WITH NO SIGNIFICANT WEATHER AND/OR OBSTRUCTIONS TO VISIBILITY.

WYZ001-220400-
YELLOWSTONE NATIONAL PARK

CITY           SKY/WX    TMP DP  RH WIND       PRES   REMARKS
LK YELLOWSTONE NOT AVBL
W YELLOWSTONE  NOT AVBL

$$
WYZ002>013-054>058-071-098>099-220400-
NORTHERN WYOMING

CITY           SKY/WX    TMP DP  RH WIND       PRES   REMARKS
JACKSON        RAIN      36  35  96 NE14      29.76F WCI  27
CODY           RAIN      38  35  89 NW8       29.90R WCI  32
GREYBULL       LGT RAIN  45  41  86 NW18G28   29.79S
WORLAND        CLOUDY    47  41  80 NW13      29.83R
SHERIDAN       CLOUDY    46  42  86 W10       29.92R
BUFFALO        CLOUDY    45  37  73 NW16G23   29.91R
GILLETTE       FAIR      50  34  54 N16G24    29.84R
HULETT         FAIR      52  37  58 NE9       29.84S
NEWCASTLE      FAIR      61  36  39 NW6       29.72R

$$
WYZ014>020-022>026-101>103-220400-
CENTRAL WYOMING

CITY           SKY/WX    TMP DP  RH WIND       PRES   REMARKS
BIG PINEY      CLOUDY    49  44  83 CALM      29.74R
PINEDALE       CLOUDY    43  43 100 W6        29.73S
DUBOIS         RAIN      43  41  93 SE14G20   29.76R
LANDER           N/A    N/A N/A N/A MISG      29.77R
RIVERTON       FAIR      45  38  76 N16       29.77R
CASPER         FAIR      47  39  74 NE17      29.82R
DOUGLAS        FAIR      58  38  47 NW9       29.76R

$$
WYZ021-027>030-104>119-220400-
SOUTHERN WYOMING

CITY           SKY/WX    TMP DP  RH WIND       PRES   REMARKS
EVANSTON       CLOUDY    42  42 100 W6        29.77R
KEMMERER         N/A     43  41  93 SW18G24   29.74S
FORT BRIDGER   FAIR      53  41  64 W18G25    29.72F
ROCK SPRINGS   FAIR      63  23  21 S17G26    29.69S
DIXON          FAIR      65  19  16 SE6       29.78S
RAWLINS        NOT AVBL
SARATOGA       FAIR      55  25  30 S9G18     29.81S
LARAMIE        FAIR      56  21  25 SE10      29.83R
CHEYENNE       FAIR      63  28  26 NE5       29.74S
TORRINGTON     FAIR      66  38  35 E13       29.62S
PINE BLUFFS    FAIR      64  34  32 E9        29.69S

$$




USA.gov is the U.S. government's official web portal to all federal, state and local government web resources and services.